Home   Weather   Aspen   Past weeks

Flag for USA Past Weather in Aspen, Colorado, USA — Yesterday and Last 2 Weeks

Now
37 °F

Passing clouds.


Feels Like: 32 °F
Forecast: 25 / 38 °F
Wind: 7 mph from Southeast

Location: Aspen-Pitkin County Airport

Current Time: Apr 26, 2017 at 9:24:16 pm

Latest Report: Apr 26, 2017 at 8:53 pm


Visibility: 10 mi

Pressure: 29.68 "Hg (22.02 "Hg at 2411m altitude)

Humidity: 76%

Dew Point: 30 °F

Location of AspenLocation

Past Weather in Aspen — Graph

°F

Aspen Temperature Yesterday

Maximum temperature yesterday: 39 °F (at 12:53 pm)
Minimum temperature yesterday: 28 °F (at 5:53 am)
Average temperature yesterday: 33 °F

High & Low Weather Summary for the Past Weeks

 TemperatureHumidityPressure
High68 °F (Apr 18, 4:53 pm)100% (Apr 21, 12:02 am)30.17 "Hg (Apr 21, 12:02 am)
Low25 °F (Apr 22, 5:53 am)7% (Apr 14, 5:53 pm)29.42 "Hg (Apr 24, 9:53 pm)
Average44 °F53%29.85 "Hg
* Reported Apr 11 6:53 pm — Apr 26 6:53 pm, Aspen, Weather by CustomWeather, © 2017

Note: Actual official high and low records may vary slightly from our data, if they occured in-between our weather recording intervals... More about our weather records

Advertising

Aspen Weather History for the Previous 24 Hours

Scroll right to see more
 ConditionsComfort  
Time TempWeatherWind HumidityBarometerVisibility
6:53 pm
Wed, Apr 26
39 °FMore clouds than sun.6 mph70%29.69 "Hg10 mi
5:53 pm41 °FLight rain. Mostly cloudy.6 mph67%29.67 "Hg10 mi
4:53 pm42 °FBroken clouds.No wind57%29.67 "Hg10 mi
3:53 pm42 °FCloudy.14 mph60%29.68 "Hg10 mi
2:53 pm39 °FLight rain. Cloudy.9 mph73%29.71 "Hg5 mi
1:53 pm42 °FPartly sunny.7 mph57%29.70 "Hg9 mi
1:02 pm39 °FLight snow. Cloudy.7 mph76%29.87 "Hg10 mi
12:29 pm38 °FBroken clouds.No wind70%29.88 "Hg10 mi
12:04 pm37 °FPartly sunny.No wind79%29.88 "Hg6 mi
11:26 am37 °FMostly cloudy.9 mph62%29.91 "Hg2 mi
10:53 am38 °FPartly sunny.6 mph63%29.79 "Hg10 mi
9:53 am35 °FMore clouds than sun.No wind61%29.81 "Hg10 mi
8:53 am34 °FOvercast.5 mph73%29.83 "Hg10 mi
7:53 am32 °FPartly sunny.3 mph82%29.81 "Hg10 mi
6:53 am30 °FPartly sunny.No wind89%29.83 "Hg10 mi
6:13 am30 °FMostly cloudy.5 mph89%29.91 "Hg10 mi
5:53 am31 °FMostly cloudy.5 mph85%29.79 "Hg10 mi
5:43 am30 °FMostly cloudy.7 mph89%29.91 "Hg10 mi
5:30 am31 °FMostly cloudy.5 mph85%29.91 "Hg10 mi
4:53 am31 °FOvercast.7 mph85%29.80 "Hg10 mi
3:53 am32 °FMostly cloudy.9 mph85%29.81 "Hg10 mi
2:53 am31 °FMostly cloudy.No wind92%29.77 "Hg10 mi
2:26 am31 °FMostly cloudy.No wind92%29.89 "Hg10 mi
1:53 am32 °FMostly cloudy.5 mph88%29.77 "Hg10 mi
1:11 am32 °FLight snow. Mostly cloudy.No wind92%29.88 "Hg9 mi
12:53 am31 °FMostly cloudy.No wind100%29.76 "Hg10 mi
12:12 am31 °FMostly cloudy.3 mph96%29.86 "Hg10 mi
12:03 am31 °FMostly cloudy.5 mph96%29.86 "Hg10 mi
11:53 pm
Tue, Apr 25
32 °FOvercast.5 mph92%29.75 "Hg10 mi
11:38 pm32 °FMostly cloudy.3 mph92%29.86 "Hg10 mi
11:13 pm32 °FMostly cloudy.3 mph92%29.86 "Hg10 mi
10:53 pm32 °FOvercast.3 mph92%29.75 "Hg10 mi
9:53 pm30 °FPassing clouds.6 mph96%29.77 "Hg10 mi
9:08 pm32 °FPassing clouds.No wind96%29.83 "Hg10 mi
9:01 pm32 °FMostly cloudy.No wind96%29.83 "Hg10 mi
Weather by CustomWeather, © 2017

See weather overviewHow to use our weather pages